Terminal Aerodrome Forecast
Issued by NWS Quad Cities IA IL

Home | Current Version | Previous Version | Text Only | Print | Product List | Glossary On
Versions: 1 2 3 4 5 6 7 8 9 10 11 12 13 14 15 16 17
000
FTUS43 KDVN 222300
TAFDBQ
TAF
KDBQ 222337Z 2300/2324 30009KT P6SM FEW100 SCT250
     FM230300 35007KT P6SM SKC
     FM231500 03008KT P6SM FEW050=

USA.gov is the U.S. government's official web portal to all federal, state and local government web resources and services.